THY1264 LTFM-LIRF

Flight info

Callsign THY1264
Flight time 2h 1m
Altitude 38000
Route BARPE UM603 SUTIS DCT DISOR DCT ENFAR DCT RETRA DCT KATTI DCT ESODU Z924 MOPUV
Aircraft B77W/H-SDE1E2E3FGHIJ2J3J4J5M1RWXY/LB1D1

Departure

Time 2026-05-04 00:21
Airport İstanbul Airport (LTFM)

Arrival

Time 2026-05-04 02:22
Airport Rome–Fiumicino Leonardo da Vinci International Airport (LIRF)
Time Latitude Longitude Altitude Speed Heading
2026-05-03 23:48 41.26483 28.74720 334 ft 0 kts 110°
2026-05-04 00:04 41.26490 28.74693 333 ft 4 kts 107°
2026-05-04 00:04 41.26498 28.74658 333 ft 4 kts 106°
2026-05-04 00:04 41.26504 28.74629 333 ft 4 kts 95°
2026-05-04 00:04 41.26498 28.74601 333 ft 4 kts 34°
2026-05-04 00:05 41.26474 28.74587 333 ft 4 kts 17°
2026-05-04 00:05 41.26464 28.74582 333 ft 1 kts 17°
2026-05-04 00:09 41.26490 28.74593 338 ft 10 kts 17°
2026-05-04 00:10 41.26562 28.74614 334 ft 11 kts
2026-05-04 00:10 41.26635 28.74616 335 ft 11 kts 359°
2026-05-04 00:10 41.26708 28.74614 337 ft 11 kts 359°
2026-05-04 00:10 41.26782 28.74613 335 ft 11 kts 359°
2026-05-04 00:11 41.26855 28.74611 335 ft 11 kts 359°
2026-05-04 00:11 41.26928 28.74607 336 ft 11 kts 348°
2026-05-04 00:11 41.26970 28.74533 335 ft 11 kts 278°
2026-05-04 00:11 41.26972 28.74432 335 ft 11 kts 270°
2026-05-04 00:12 41.26971 28.74330 339 ft 11 kts 269°
2026-05-04 00:12 41.26969 28.74228 339 ft 11 kts 269°
2026-05-04 00:12 41.26967 28.74126 339 ft 11 kts 269°
2026-05-04 00:12 41.26965 28.73979 339 ft 20 kts 269°
2026-05-04 00:13 41.26962 28.73787 339 ft 22 kts 269°
2026-05-04 00:13 41.26960 28.73575 339 ft 24 kts 269°
2026-05-04 00:13 41.26958 28.73366 335 ft 21 kts 269°
2026-05-04 00:13 41.26955 28.73169 339 ft 21 kts 269°
2026-05-04 00:14 41.26943 28.73026 333 ft 12 kts 237°
2026-05-04 00:14 41.26864 28.72991 338 ft 12 kts 181°
2026-05-04 00:14 41.26778 28.72991 337 ft 12 kts 179°
2026-05-04 00:14 41.26692 28.72993 338 ft 12 kts 179°
2026-05-04 00:15 41.26605 28.72995 334 ft 12 kts 179°
2026-05-04 00:15 41.26519 28.72998 334 ft 12 kts 179°
2026-05-04 00:15 41.26432 28.73000 335 ft 12 kts 178°
2026-05-04 00:15 41.26345 28.73001 335 ft 12 kts 179°
2026-05-04 00:16 41.26263 28.73003 334 ft 8 kts 179°
2026-05-04 00:16 41.26224 28.72967 333 ft 0 kts 244°
2026-05-04 00:18 41.26218 28.72938 336 ft 15 kts 259°
2026-05-04 00:18 41.26213 28.72843 339 ft 6 kts 267°
2026-05-04 00:19 41.26212 28.72788 339 ft 6 kts 275°
2026-05-04 00:19 41.26241 28.72768 335 ft 0 kts
2026-05-04 00:20 41.26351 28.72776 336 ft 50 kts
2026-05-04 00:20 41.26978 28.72759 337 ft 127 kts 359°
2026-05-04 00:20 41.28052 28.72722 464 ft 171 kts
2026-05-04 00:21 41.29255 28.72668 1207 ft 173 kts 358°
2026-05-04 00:21 41.30384 28.72646 2335 ft 159 kts
2026-05-04 00:21 41.31543 28.72643 2823 ft 180 kts
2026-05-04 00:21 41.32898 28.72638 3113 ft 210 kts
2026-05-04 00:22 41.34438 28.72630 3653 ft 226 kts
2026-05-04 00:22 41.36010 28.72182 4341 ft 242 kts 336°
2026-05-04 00:22 41.37316 28.70684 5209 ft 258 kts 310°
2026-05-04 00:22 41.38060 28.68467 6177 ft 269 kts 290°
2026-05-04 00:23 41.38260 28.65939 6984 ft 280 kts 275°
2026-05-04 00:23 41.38221 28.63348 7787 ft 287 kts 273°
2026-05-04 00:23 41.38148 28.60677 8621 ft 290 kts 270°
2026-05-04 00:23 41.37599 28.58039 9311 ft 307 kts 242°
2026-05-04 00:24 41.36142 28.55954 10132 ft 313 kts 212°
2026-05-04 00:24 41.34084 28.54972 10698 ft 325 kts 184°
2026-05-04 00:24 41.31757 28.54981 10906 ft 347 kts 175°
2026-05-04 00:24 41.29242 28.55134 11126 ft 376 kts 175°
2026-05-04 00:25 41.26568 28.55244 11758 ft 390 kts 177°
2026-05-04 00:25 41.23850 28.54945 12515 ft 399 kts 194°
2026-05-04 00:25 41.21235 28.53668 13332 ft 405 kts 202°
2026-05-04 00:25 41.18610 28.52245 14308 ft 410 kts 201°
2026-05-04 00:26 41.15955 28.50850 15339 ft 412 kts 201°
2026-05-04 00:26 41.13267 28.49482 16323 ft 416 kts 200°
2026-05-04 00:26 41.10536 28.48120 17246 ft 422 kts 200°
2026-05-04 00:26 41.07762 28.46746 18137 ft 428 kts 200°
2026-05-04 00:27 41.04931 28.45438 18937 ft 433 kts 195°
2026-05-04 00:27 41.01988 28.44490 19732 ft 437 kts 190°
2026-05-04 00:27 40.98995 28.43682 20523 ft 442 kts 190°
2026-05-04 00:27 40.95966 28.42817 21329 ft 447 kts 191°
2026-05-04 00:28 40.92934 28.41851 22065 ft 449 kts 195°
2026-05-04 00:28 40.90097 28.40013 22615 ft 462 kts 216°
2026-05-04 00:28 40.87818 28.36993 23346 ft 467 kts 234°
2026-05-04 00:28 40.86227 28.33258 24082 ft 468 kts 250°
2026-05-04 00:29 40.85437 28.29103 24692 ft 468 kts 261°
2026-05-04 00:29 40.84904 28.24826 25188 ft 475 kts 261°
2026-05-04 00:29 40.84336 28.20503 25745 ft 480 kts 259°
2026-05-04 00:29 40.83705 28.16157 26361 ft 484 kts 258°
2026-05-04 00:30 40.83041 28.11792 26968 ft 487 kts 258°
2026-05-04 00:30 40.82367 28.07390 27541 ft 491 kts 258°
2026-05-04 00:30 40.81688 28.02954 28072 ft 495 kts 258°
2026-05-04 00:30 40.81007 27.98481 28592 ft 499 kts 257°
2026-05-04 00:31 40.80322 27.93982 29092 ft 503 kts 257°
2026-05-04 00:31 40.79631 27.89445 29575 ft 506 kts 258°
2026-05-04 00:31 40.79192 27.84888 29965 ft 511 kts 268°
2026-05-04 00:31 40.79286 27.80192 30363 ft 513 kts 272°
2026-05-04 00:32 40.79490 27.75504 30994 ft 508 kts 272°
2026-05-04 00:32 40.79616 27.70872 31709 ft 503 kts 271°
2026-05-04 00:32 40.79661 27.66272 32334 ft 500 kts 270°
2026-05-04 00:32 40.79686 27.61703 32874 ft 498 kts 271°
2026-05-04 00:33 40.80038 27.57163 33308 ft 498 kts 282°
2026-05-04 00:33 40.81922 27.48398 34250 ft 495 kts 288°
2026-05-04 00:33 40.82944 27.44061 34621 ft 495 kts 288°
2026-05-04 00:34 40.83935 27.39710 34989 ft 495 kts 287°
2026-05-04 00:34 40.84886 27.35345 35354 ft 494 kts 286°
2026-05-04 00:34 40.85805 27.30976 35709 ft 494 kts 286°
2026-05-04 00:34 40.86708 27.26591 36108 ft 492 kts 286°
2026-05-04 00:35 40.87597 27.22246 36555 ft 490 kts 286°
2026-05-04 00:35 40.88485 27.17902 36905 ft 489 kts 286°
2026-05-04 00:35 40.89372 27.13576 37279 ft 488 kts 286°
2026-05-04 00:35 40.90261 27.09246 37635 ft 487 kts 286°
2026-05-04 00:36 40.91144 27.04938 37954 ft 486 kts 286°
2026-05-04 00:36 40.92656 26.96164 38061 ft 493 kts 272°
2026-05-04 00:37 40.92209 26.87111 38077 ft 495 kts 265°
2026-05-04 00:37 40.91508 26.78085 38071 ft 491 kts 265°
2026-05-04 00:38 40.90911 26.69145 38081 ft 485 kts 266°
2026-05-04 00:38 40.90380 26.60268 38083 ft 484 kts 266°
2026-05-04 00:39 40.89850 26.51409 38090 ft 483 kts 266°
2026-05-04 00:39 40.89308 26.42568 38097 ft 483 kts 266°
2026-05-04 00:40 40.88756 26.33716 38090 ft 483 kts 266°
2026-05-04 00:40 40.88202 26.24927 38090 ft 483 kts 266°
2026-05-04 00:41 40.87427 26.16042 38084 ft 484 kts 263°
2026-05-04 00:41 40.86519 26.07219 38075 ft 485 kts 264°
2026-05-04 00:42 40.85657 25.98393 38075 ft 485 kts 264°
2026-05-04 00:42 40.84725 25.89565 38072 ft 485 kts 262°
2026-05-04 00:43 40.83635 25.80768 38080 ft 486 kts 262°
2026-05-04 00:43 40.82542 25.71967 38090 ft 486 kts 262°
2026-05-04 00:44 40.81466 25.63162 38096 ft 486 kts 262°
2026-05-04 00:44 40.80397 25.54420 38113 ft 486 kts 262°
2026-05-04 00:45 40.79323 25.45626 38117 ft 485 kts 264°
2026-05-04 00:45 40.79139 25.41199 38104 ft 482 kts 275°
2026-05-04 00:45 40.79507 25.36823 38121 ft 479 kts 282°
2026-05-04 00:46 40.81419 25.28443 38122 ft 476 kts 291°
2026-05-04 00:46 40.83697 25.20227 38119 ft 477 kts 292°
2026-05-04 00:47 40.85952 25.11998 38122 ft 477 kts 291°
2026-05-04 00:47 40.88167 25.03750 38124 ft 477 kts 291°
2026-05-04 00:48 40.90363 24.95482 38124 ft 476 kts 291°
2026-05-04 00:48 40.92549 24.87213 38139 ft 476 kts 291°
2026-05-04 00:49 40.94729 24.78945 38135 ft 476 kts 291°
2026-05-04 00:49 40.96902 24.70682 38136 ft 476 kts 291°
2026-05-04 00:50 40.99070 24.62411 38123 ft 475 kts 291°
2026-05-04 00:50 41.00864 24.55544 38131 ft 475 kts 291°
2026-05-04 00:51 41.03017 24.47280 38139 ft 475 kts 291°
2026-05-04 00:51 41.05166 24.39000 38139 ft 475 kts 291°
2026-05-04 00:52 41.07308 24.30721 38154 ft 475 kts 291°
2026-05-04 00:52 41.09445 24.22432 38152 ft 475 kts 291°
2026-05-04 00:53 41.11574 24.14145 38163 ft 475 kts 291°
2026-05-04 00:53 41.13697 24.05855 38157 ft 474 kts 291°
2026-05-04 00:54 41.15811 23.97570 38165 ft 474 kts 291°
2026-05-04 00:54 41.17919 23.89280 38171 ft 474 kts 291°
2026-05-04 00:55 41.20019 23.80993 38165 ft 474 kts 291°
2026-05-04 00:55 41.22115 23.72695 38170 ft 474 kts 291°
2026-05-04 00:56 41.24205 23.64390 38160 ft 474 kts 291°
2026-05-04 00:56 41.26287 23.56084 38161 ft 473 kts 291°
2026-05-04 00:57 41.28363 23.47778 38152 ft 474 kts 291°
2026-05-04 00:57 41.30431 23.39475 38150 ft 472 kts 291°
2026-05-04 00:58 41.32474 23.31241 38153 ft 471 kts 291°
2026-05-04 00:58 41.34519 23.22971 38155 ft 470 kts 291°
2026-05-04 00:59 41.36555 23.14705 38160 ft 470 kts 291°
2026-05-04 00:59 41.38582 23.06452 38147 ft 469 kts 291°
2026-05-04 01:00 41.40601 22.98201 38166 ft 468 kts 291°
2026-05-04 01:00 41.42604 22.89982 38157 ft 466 kts 291°
2026-05-04 01:01 41.44600 22.81767 38167 ft 465 kts 291°
2026-05-04 01:01 41.46580 22.73588 38179 ft 463 kts 291°
2026-05-04 01:02 41.48552 22.65415 38179 ft 462 kts 291°
2026-05-04 01:02 41.50512 22.57258 38183 ft 461 kts 291°
2026-05-04 01:03 41.52465 22.49106 38185 ft 460 kts 291°
2026-05-04 01:03 41.54405 22.40977 38181 ft 460 kts 292°
2026-05-04 01:04 41.56340 22.32843 38195 ft 459 kts 292°
2026-05-04 01:04 41.58268 22.24711 38197 ft 459 kts 292°
2026-05-04 01:05 41.60188 22.16579 38192 ft 460 kts 292°
2026-05-04 01:05 41.62107 22.08424 38196 ft 460 kts 292°
2026-05-04 01:06 41.64018 22.00275 38194 ft 460 kts 292°
2026-05-04 01:06 41.65925 21.92107 38195 ft 460 kts 292°
2026-05-04 01:07 41.67824 21.83946 38198 ft 459 kts 291°
2026-05-04 01:07 41.69717 21.75788 38208 ft 459 kts 291°
2026-05-04 01:08 41.71603 21.67629 38194 ft 459 kts 291°
2026-05-04 01:08 41.73480 21.59472 38208 ft 458 kts 291°
2026-05-04 01:09 41.75334 21.51387 38193 ft 457 kts 292°
2026-05-04 01:09 41.77189 21.43264 38208 ft 456 kts 291°
2026-05-04 01:10 41.79044 21.35129 38206 ft 457 kts 291°
2026-05-04 01:10 41.80895 21.26976 38206 ft 457 kts 291°
2026-05-04 01:11 41.82736 21.18826 38207 ft 457 kts 292°
2026-05-04 01:11 41.84572 21.10681 38211 ft 456 kts 291°
2026-05-04 01:12 41.86402 21.02518 38207 ft 457 kts 292°
2026-05-04 01:12 41.88229 20.94345 38194 ft 457 kts 292°
2026-05-04 01:13 41.90050 20.86170 38189 ft 457 kts 292°
2026-05-04 01:13 41.91859 20.78008 38193 ft 455 kts 292°
2026-05-04 01:14 41.93666 20.69841 38189 ft 456 kts 291°
2026-05-04 01:14 41.95469 20.61659 38201 ft 457 kts 291°
2026-05-04 01:15 41.97265 20.53464 38175 ft 458 kts 291°
2026-05-04 01:15 41.99057 20.45261 38179 ft 457 kts 291°
2026-05-04 01:16 42.00844 20.37055 38189 ft 457 kts 291°
2026-05-04 01:16 42.02619 20.28868 38196 ft 455 kts 291°
2026-05-04 01:17 42.04384 20.20690 38183 ft 455 kts 291°
2026-05-04 01:17 42.06132 20.12574 38187 ft 455 kts 291°
2026-05-04 01:18 42.07896 20.04341 38177 ft 454 kts 291°
2026-05-04 01:18 42.09626 19.96242 38168 ft 453 kts 291°
2026-05-04 01:19 42.11358 19.88106 38173 ft 452 kts 291°
2026-05-04 01:19 42.13079 19.79979 38175 ft 451 kts 291°
2026-05-04 01:20 42.14795 19.71854 38153 ft 451 kts 291°
2026-05-04 01:20 42.16504 19.63724 38148 ft 450 kts 291°
2026-05-04 01:21 42.18203 19.55610 38159 ft 449 kts 290°
2026-05-04 01:21 42.19895 19.47503 38144 ft 449 kts 290°
2026-05-04 01:22 42.21581 19.39395 38136 ft 449 kts 290°
2026-05-04 01:22 42.23085 19.31211 38128 ft 453 kts 284°
2026-05-04 01:23 42.23930 19.22777 38126 ft 454 kts 282°
2026-05-04 01:23 42.24720 19.14337 38128 ft 453 kts 283°
2026-05-04 01:24 42.25523 19.05912 38119 ft 452 kts 283°
2026-05-04 01:24 42.26339 18.97448 38130 ft 452 kts 283°
2026-05-04 01:25 42.27141 18.89113 38141 ft 450 kts 283°
2026-05-04 01:25 42.27945 18.80715 38129 ft 451 kts 283°
2026-05-04 01:26 42.28743 18.72320 38129 ft 451 kts 282°
2026-05-04 01:26 42.29534 18.63910 38130 ft 452 kts 282°
2026-05-04 01:27 42.30320 18.55486 38130 ft 452 kts 282°
2026-05-04 01:27 42.31100 18.47054 38127 ft 452 kts 282°
2026-05-04 01:28 42.31873 18.38629 38131 ft 452 kts 282°
2026-05-04 01:28 42.32639 18.30206 38125 ft 452 kts 282°
2026-05-04 01:29 42.33401 18.21769 38129 ft 452 kts 282°
2026-05-04 01:29 42.34155 18.13345 38127 ft 452 kts 282°
2026-05-04 01:30 42.34904 18.04905 38128 ft 452 kts 281°
2026-05-04 01:30 42.35647 17.96469 38121 ft 452 kts 281°
2026-05-04 01:31 42.36383 17.88027 38129 ft 452 kts 281°
2026-05-04 01:31 42.37110 17.79630 38129 ft 453 kts 281°
2026-05-04 01:32 42.37836 17.71166 38125 ft 453 kts 281°
2026-05-04 01:32 42.38556 17.62690 38124 ft 454 kts 281°
2026-05-04 01:33 42.39266 17.54260 38129 ft 454 kts 280°
2026-05-04 01:33 42.39975 17.45765 38121 ft 455 kts 280°
2026-05-04 01:34 42.40679 17.37260 38124 ft 455 kts 280°
2026-05-04 01:34 42.41376 17.28747 38126 ft 455 kts 280°
2026-05-04 01:35 42.42067 17.20239 38123 ft 455 kts 280°
2026-05-04 01:35 42.42753 17.11719 38121 ft 455 kts 280°
2026-05-04 01:36 42.43431 17.03203 38119 ft 455 kts 279°
2026-05-04 01:36 42.44103 16.94695 38119 ft 454 kts 279°
2026-05-04 01:37 42.44767 16.86194 38119 ft 454 kts 279°
2026-05-04 01:37 42.45314 16.79134 38116 ft 453 kts 279°
2026-05-04 01:38 42.45966 16.70656 38115 ft 453 kts 279°
2026-05-04 01:38 42.46611 16.62166 38118 ft 453 kts 279°
2026-05-04 01:39 42.47249 16.53692 38113 ft 452 kts 279°
2026-05-04 01:39 42.47882 16.45212 38117 ft 452 kts 279°
2026-05-04 01:40 42.48507 16.36744 38119 ft 452 kts 279°
2026-05-04 01:40 42.49125 16.28275 38116 ft 452 kts 279°
2026-05-04 01:41 42.49738 16.19796 38112 ft 452 kts 278°
2026-05-04 01:41 42.50345 16.11328 38114 ft 451 kts 278°
2026-05-04 01:42 42.50789 16.02844 38107 ft 453 kts 272°
2026-05-04 01:42 42.50536 15.94295 38112 ft 454 kts 270°
2026-05-04 01:43 42.50223 15.85765 38112 ft 453 kts 270°
2026-05-04 01:43 42.49925 15.77233 38111 ft 453 kts 270°
2026-05-04 01:44 42.49639 15.68719 38108 ft 452 kts 270°
2026-05-04 01:44 42.49353 15.60220 38111 ft 451 kts 270°
2026-05-04 01:45 42.49060 15.51733 38109 ft 450 kts 270°
2026-05-04 01:45 42.48612 15.39095 38107 ft 449 kts 270°
2026-05-04 01:46 42.48302 15.30601 38106 ft 448 kts 270°
2026-05-04 01:46 42.47988 15.22163 38106 ft 448 kts 270°
2026-05-04 01:47 42.47669 15.13747 38113 ft 447 kts 270°
2026-05-04 01:47 42.47347 15.05394 38112 ft 447 kts 270°
2026-05-04 01:48 42.47016 14.96985 38111 ft 447 kts 269°
2026-05-04 01:48 42.46678 14.88569 38098 ft 447 kts 269°
2026-05-04 01:49 42.46335 14.80160 38098 ft 447 kts 269°
2026-05-04 01:49 42.45987 14.71809 37484 ft 444 kts 269°
2026-05-04 01:50 42.45811 14.67647 36900 ft 441 kts 269°
2026-05-04 01:50 42.45636 14.63507 36229 ft 441 kts 269°
2026-05-04 01:50 42.45459 14.59362 35495 ft 442 kts 269°
2026-05-04 01:50 42.45279 14.55199 34776 ft 443 kts 269°
2026-05-04 01:51 42.45098 14.51045 34259 ft 440 kts 269°
2026-05-04 01:51 42.44918 14.46925 33668 ft 438 kts 269°
2026-05-04 01:51 42.44736 14.42824 33104 ft 434 kts 269°
2026-05-04 01:51 42.44540 14.38765 32571 ft 431 kts 267°
2026-05-04 01:52 42.44016 14.34775 32051 ft 431 kts 258°
2026-05-04 01:52 42.43109 14.30913 31559 ft 430 kts 252°
2026-05-04 01:52 42.41896 14.27223 31046 ft 430 kts 245°
2026-05-04 01:52 42.40396 14.23727 30565 ft 428 kts 243°
2026-05-04 01:53 42.38881 14.20276 30050 ft 425 kts 243°
2026-05-04 01:53 42.37394 14.16828 29484 ft 423 kts 243°
2026-05-04 01:53 42.35925 14.13405 28951 ft 420 kts 243°
2026-05-04 01:53 42.34462 14.09999 28447 ft 417 kts 243°
2026-05-04 01:54 42.33011 14.06625 27942 ft 414 kts 243°
2026-05-04 01:54 42.31572 14.03279 27455 ft 411 kts 243°
2026-05-04 01:54 42.30141 13.99957 26970 ft 408 kts 243°
2026-05-04 01:54 42.28715 13.96649 26490 ft 406 kts 243°
2026-05-04 01:55 42.27298 13.93363 25998 ft 404 kts 243°
2026-05-04 01:55 42.25883 13.90090 25539 ft 402 kts 242°
2026-05-04 01:55 42.24482 13.86839 25066 ft 400 kts 243°
2026-05-04 01:55 42.23093 13.83591 24597 ft 398 kts 243°
2026-05-04 01:56 42.21711 13.80356 24132 ft 398 kts 243°
2026-05-04 01:56 42.20330 13.77133 23636 ft 397 kts 243°
2026-05-04 01:56 42.18992 13.73889 23091 ft 394 kts 246°
2026-05-04 01:56 42.17912 13.70517 22599 ft 390 kts 251°
2026-05-04 01:57 42.16962 13.67106 22126 ft 388 kts 251°
2026-05-04 01:57 42.16037 13.63750 21662 ft 386 kts 251°
2026-05-04 01:57 42.15090 13.60327 21198 ft 384 kts 251°
2026-05-04 01:57 42.14155 13.56974 20736 ft 382 kts 251°
2026-05-04 01:58 42.13218 13.53637 20276 ft 381 kts 250°
2026-05-04 01:58 42.12279 13.50305 19811 ft 379 kts 250°
2026-05-04 01:58 42.11342 13.46996 19354 ft 378 kts 250°
2026-05-04 01:58 42.10419 13.43737 18915 ft 377 kts 250°
2026-05-04 01:59 42.09496 13.40486 18435 ft 376 kts 249°
2026-05-04 01:59 42.08550 13.37155 17905 ft 376 kts 249°
2026-05-04 01:59 42.07618 13.33879 17414 ft 374 kts 249°
2026-05-04 01:59 42.06701 13.30664 17037 ft 370 kts 249°
2026-05-04 02:00 42.05765 13.27502 16890 ft 358 kts 245°
2026-05-04 02:00 42.04575 13.24612 16753 ft 349 kts 238°
2026-05-04 02:00 42.03269 13.21871 16587 ft 339 kts 237°
2026-05-04 02:00 42.02067 13.19316 16447 ft 331 kts 238°
2026-05-04 02:01 42.00880 13.16713 16319 ft 322 kts 239°
2026-05-04 02:01 41.99736 13.14169 16172 ft 314 kts 239°
2026-05-04 02:01 41.98700 13.11627 16079 ft 305 kts 244°
2026-05-04 02:01 41.97819 13.09075 15876 ft 298 kts 246°
2026-05-04 02:02 41.96982 13.06556 15716 ft 293 kts 246°
2026-05-04 02:02 41.96152 13.04069 15542 ft 291 kts 245°
2026-05-04 02:02 41.95317 13.01594 15383 ft 290 kts 245°
2026-05-04 02:02 41.94482 12.99141 15225 ft 288 kts 245°
2026-05-04 02:03 41.93646 12.96706 15070 ft 285 kts 245°
2026-05-04 02:03 41.92816 12.94295 14883 ft 283 kts 245°
2026-05-04 02:03 41.91994 12.91915 14754 ft 280 kts 245°
2026-05-04 02:03 41.91174 12.89545 14583 ft 279 kts 245°
2026-05-04 02:04 41.90359 12.87194 14431 ft 277 kts 244°
2026-05-04 02:04 41.89543 12.84844 14288 ft 278 kts 244°
2026-05-04 02:04 41.88724 12.82491 14129 ft 279 kts 244°
2026-05-04 02:04 41.87903 12.80128 13899 ft 280 kts 244°
2026-05-04 02:05 41.87079 12.77759 13604 ft 279 kts 244°
2026-05-04 02:05 41.86303 12.75529 13323 ft 277 kts 244°
2026-05-04 02:05 41.85489 12.73191 12990 ft 276 kts 244°
2026-05-04 02:05 41.84678 12.70861 12644 ft 275 kts 244°
2026-05-04 02:06 41.83869 12.68539 12329 ft 274 kts 244°
2026-05-04 02:06 41.83065 12.66238 12018 ft 272 kts 244°
2026-05-04 02:06 41.82261 12.63936 11707 ft 271 kts 244°
2026-05-04 02:06 41.81482 12.61649 11396 ft 267 kts 250°
2026-05-04 02:07 41.81267 12.59193 10939 ft 270 kts 279°
2026-05-04 02:07 41.81957 12.56874 10623 ft 270 kts 304°
2026-05-04 02:07 41.83211 12.55014 10323 ft 268 kts 315°
2026-05-04 02:07 41.84524 12.53283 10023 ft 268 kts 314°
2026-05-04 02:08 41.85863 12.51505 9694 ft 267 kts 314°
2026-05-04 02:08 41.87173 12.49750 9371 ft 266 kts 314°
2026-05-04 02:08 41.88463 12.48015 9062 ft 265 kts 314°
2026-05-04 02:08 41.89822 12.46316 8688 ft 262 kts 325°
2026-05-04 02:09 41.91510 12.45367 8172 ft 266 kts 343°
2026-05-04 02:09 41.93298 12.44666 7832 ft 267 kts 343°
2026-05-04 02:09 41.95065 12.43958 7585 ft 265 kts 342°
2026-05-04 02:09 41.96826 12.43243 7303 ft 264 kts 342°
2026-05-04 02:10 41.98554 12.42535 7067 ft 263 kts 342°
2026-05-04 02:10 42.00305 12.41814 6781 ft 263 kts 342°
2026-05-04 02:10 42.02051 12.41092 6498 ft 262 kts 342°
2026-05-04 02:10 42.03787 12.40371 6199 ft 261 kts 342°
2026-05-04 02:11 42.05501 12.39660 6075 ft 254 kts 342°
2026-05-04 02:11 42.07174 12.38963 6016 ft 252 kts 342°
2026-05-04 02:11 42.08872 12.38255 6008 ft 258 kts 342°
2026-05-04 02:11 42.10591 12.37538 6003 ft 261 kts 342°
2026-05-04 02:12 42.12325 12.36814 5998 ft 260 kts 342°
2026-05-04 02:12 42.14056 12.36089 5987 ft 260 kts 342°
2026-05-04 02:12 42.15770 12.35289 5968 ft 254 kts 330°
2026-05-04 02:12 42.17005 12.33777 5958 ft 238 kts 298°
2026-05-04 02:13 42.17511 12.31748 5898 ft 225 kts 275°
2026-05-04 02:13 42.17469 12.29691 5659 ft 217 kts 255°
2026-05-04 02:13 42.17054 12.27747 5353 ft 216 kts 250°
2026-05-04 02:13 42.16586 12.25821 5061 ft 216 kts 250°
2026-05-04 02:14 42.16123 12.23901 4785 ft 216 kts 250°
2026-05-04 02:14 42.15667 12.21989 4549 ft 212 kts 250°
2026-05-04 02:14 42.15142 12.20164 4229 ft 207 kts 233°
2026-05-04 02:14 42.14074 12.19050 4191 ft 194 kts 201°
2026-05-04 02:15 42.12732 12.18510 3930 ft 205 kts 193°
2026-05-04 02:15 42.11344 12.18091 3714 ft 205 kts 192°
2026-05-04 02:15 42.09947 12.17680 3496 ft 206 kts 192°
2026-05-04 02:15 42.08543 12.17265 3317 ft 206 kts 192°
2026-05-04 02:16 42.07129 12.16893 3053 ft 206 kts 183°
2026-05-04 02:16 42.05756 12.17229 2986 ft 200 kts 162°
2026-05-04 02:16 42.04423 12.17816 2941 ft 201 kts 163°
2026-05-04 02:16 42.03079 12.18388 2852 ft 204 kts 163°
2026-05-04 02:17 42.01767 12.18947 2784 ft 187 kts 163°
2026-05-04 02:17 42.00600 12.19430 2682 ft 164 kts 163°
2026-05-04 02:17 41.99550 12.19863 2617 ft 154 kts 163°
2026-05-04 02:17 41.98532 12.20289 2595 ft 155 kts 163°
2026-05-04 02:18 41.97489 12.20727 2563 ft 158 kts 163°
2026-05-04 02:18 41.96426 12.21174 2388 ft 161 kts 163°
2026-05-04 02:18 41.95369 12.21620 2211 ft 158 kts 163°
2026-05-04 02:18 41.94339 12.22054 2099 ft 153 kts 163°
2026-05-04 02:19 41.93299 12.22491 1914 ft 159 kts 163°
2026-05-04 02:19 41.92245 12.22936 1706 ft 158 kts 162°
2026-05-04 02:19 41.91211 12.23371 1470 ft 154 kts 162°
2026-05-04 02:19 41.90189 12.23801 1278 ft 154 kts 162°
2026-05-04 02:20 41.89163 12.24232 1065 ft 155 kts 162°
2026-05-04 02:20 41.88135 12.24664 784 ft 154 kts 161°
2026-05-04 02:20 41.87115 12.25094 577 ft 153 kts 161°
2026-05-04 02:20 41.86108 12.25524 366 ft 151 kts 161°
2026-05-04 02:21 41.85116 12.25940 176 ft 152 kts 161°
2026-05-04 02:21 41.84091 12.26361 28 ft 149 kts 161°
2026-05-04 02:21 41.83210 12.26733 16 ft 121 kts 163°
2026-05-04 02:21 41.82481 12.27036 16 ft 92 kts 163°
2026-05-04 02:22 41.82143 12.27140 15 ft 42 kts 179°
2026-05-04 02:22 41.81895 12.27089 16 ft 28 kts 193°
2026-05-04 02:22 41.81703 12.27048 16 ft 27 kts 176°
2026-05-04 02:22 41.81553 12.27101 17 ft 22 kts 162°
2026-05-04 02:23 41.81404 12.27164 17 ft 22 kts 163°
2026-05-04 02:23 41.81246 12.27229 17 ft 27 kts 163°
2026-05-04 02:23 41.81069 12.27304 17 ft 25 kts 162°
2026-05-04 02:23 41.80959 12.27345 17 ft 11 kts 173°
2026-05-04 02:24 41.80880 12.27341 17 ft 11 kts 185°
2026-05-04 02:24 41.80800 12.27324 17 ft 12 kts 190°
2026-05-04 02:24 41.80744 12.27310 17 ft 12 kts 194°
2026-05-04 02:24 41.80688 12.27269 17 ft 18 kts 220°